DECAYED

DELTA 1 DEB, 10761 (Decayed)

Orbit data source: Space-Track

DELTA 1 DEB, 10761 was space debris in SSO originally from a launch on Thu, 29 Jul 1976 UTC launched from the Air Force Western Test Range (AFWTR). Debris objects in space refer to the collection of defunct objects orbiting the Earth. Examples of debris include non-operational satellites, rocket bodies, and fragments generated from explosions, collisions, or faulty payload assembly.

Not visible in the next 10 days
Identifier
10761, 1976-077BJ
Orbit
Decayed
Country
Flag of USUS
Related business
Manufacturer
Unknown
Mission
Decayed spacecraft
Bus & Motor
Unknown
Mass
Unknown
Launch date (UTC)
1976-07-29 (50 years ago)
Launch vehicle
Unknown
Launch site
Air Force Western Test Range (AFWTR)
Object type
Payload
Rocket body
Debris
Shape & HBR
Unknown shape, 0.1 m
Radar Cross Section
Medium (>0.1 m² and <1 m²)

Expand to show TLE details & history
Last TLE update: 7 months ago

TLE from 7 months ago
0 DELTA 1 DEB
1 10761U 76077BJ  26040.96618309  .07642491  84437-1  42960-1 0  9998
2 10761 101.3493 303.0118 0040013 162.0705 198.1972 15.83644780209827
Epoch: 2026-02-09T23:11Z
TLE epoch observation values (Epoch: 2026-02-09T23:11:18.218Z)
Latitude
-0.00008°
Longitude
175.13248°
Altitude
348.651 km
Speed
7.685 km/s
True Right ascension
20h 12m 02s
True Declination
0° 00' 00"
Sunlit
Object was in daylight at epoch
Visualization orbit readout
Latitude
Unknown
Longitude
Unknown
Altitude
Unknown
Speed
Unknown
Apparent Right ascension
Unknown
Apparent Declination
Unknown
Sunlit
N/A
Visualization observer readout
Local Sidereal Time
00:08:09
Azimuth
Unknown
Elevation
Unknown
Doppler factor
Unknown
Orbital elements
Apogee altitude
344.033 km
Perigee altitude
290.453 km
Semi-major axis
6,695.38 km
Eccentricity
0.004
Inclination
101.3493°
RAAN
303.0118°
Arg. of periapsis
162.0705°
True anomaly
198.05469°
Mean anomaly
198.1972°
Eccentric anomaly
198.12588°
Mean motion
3.96169 °/min
Orbital period
90.87 mins
BSTAR
0.04296
Loading maneuver chart data...
Computing Atmospheric mass density...
Loading historical data...
Loading historical data...
Loading historical data...
Loading historical data...
Loading historical data...
Loading historical data...
Loading historical data...

Documentation

Showing up to 5 results
|